Zurück zum Katalog

STARLINK-37428

AktivKommunikationVLEO
NORAD 69184·PAYLOAD·🇺🇸 United States

Gestartet May 25, 2026 von Cape Canaveral Space Force Station

Loading…

Nächste Überflüge (nächste 24 Stunden)

TLE

AktuellSource: CelesTrak SupGP

Epoche: Sep 14, 2026, 21:22 UTC

1 69184C 26114C   26257.89076389 -.00060989  00000+0 -18017-2 0  2573
2 69184  53.1560 140.2506 0001406  99.5399 162.7581 15.34425085    11

Verfolge STARLINK-37428 in Echtzeit mit AllMySat

Download on the App Store